{"data":{"norad_id":63938,"intl_designator":"2025-098N","name":"STARLINK-33988","alt_names":[],"object_type":"PAYLOAD","status":"ACTIVE","operator":null,"country":"US","launch_date":"2025-05-13","launch_site_code":"AFWTR","launch_vehicle":null,"mission":null,"orbit_class":"UNKNOWN","rcs_meters":null,"size_class":null,"mass_kg":null,"dimensions":null,"purposes":["comms"],"wikipedia_slug":null,"has_3d_model":false,"image_url":null,"decayed_at":null,"tle_current":{"epoch":"2026-05-25T03:35:34.836864Z","epoch_age_seconds":52333,"freshness":"FRESH","line1":"1 63938U 25098N   26145.14970876  .00012993  00000+0  10937-2 0  9998","line2":"2 63938  70.0019  81.7484 0003372 257.1841 102.8942 14.98365042 58004","mean_motion":14.98365042,"eccentricity":0.0003372,"inclination_deg":70.0019,"raan_deg":81.7484,"arg_perigee_deg":257.1841,"mean_anomaly_deg":102.8942,"bstar":0.0010937,"rev_number":5800,"period_min":96.104751488189,"perigee_km":569.60396005893,"apogee_km":574.291097065,"semimajor_km":6950.084528562,"source":"CELESTRAK","updated_at":"2026-05-25T13:38:20.185015Z"}}}